King Salmon, AK

9:52 PM AKDT on August 25, 2016 (GMT -0800)
Port Heiden

Weather History for PAPH - September, 2013

Change the Weather History Date:

Saturday, September 28, 2013

  Actual Average Record
Temperature  
Mean Temperature 43 °F -  
Max Temperature 44 °F 47 °F 57 °F (2003)
Min Temperature 42 °F 38 °F 28 °F (2007)
Degree Days  
Heating Degree Days 22    
Moisture  
Dew Point 29 °F    
Average Humidity 57    
Maximum Humidity 70    
Minimum Humidity 40    
Precipitation  
Precipitation 0.00 in - - ()
Sea Level Pressure  
Sea Level Pressure 29.60 in    
Wind  
Wind Speed 28 mph (NW)    
Max Wind Speed 38 mph    
Max Gust Speed 45 mph    
Visibility 10 miles    
Events      
Averages and records for this station are not official NWS values.
T = Trace of Precipitation, MM = Missing Value Source: NWS Daily Summary

Daily Weather History Graph

Daily Weather History Graph

Search for Another Location

Airport or City:

Trip Planner

Search our weather history database for the weather conditions in past years. The results will help you decide how hot, cold, wet, or windy it might be!

Date:

Astronomy

Sep. 28, 2013 Rise Set
Actual Time 8:32 AM AKDT 8:15 PM AKDT
Civil Twilight 7:54 AM AKDT 8:53 PM AKDT
Nautical Twilight 7:10 AM AKDT 9:38 PM AKDT
Astronomical Twilight 6:23 AM AKDT 10:24 PM AKDT
Moon 1:30 AM AKDT (9/28) 5:36 PM AKDT (9/28)
Length of Visible Light 12h 58m
Length of Day
11h 42m
Waning Crescent, 34% of the Moon is Illuminated
Sep 28
Waning Crescent
Oct 4
New
Oct 11
First Quarter
Oct 18
Full
Oct 26
Last Quarter

Hourly Weather History & Observations

Time (AKDT) Temp. Windchill Dew Point Humidity Pressure Visibility Wind Dir Wind Speed Gust Speed Precip Events Conditions
12:16 AM 44.6 °F 35.1 °F 33.8 °F 66% 29.57 in 10.0 mi NW 27.6 mph 40.3 mph N/A   Overcast
12:36 AM 44.6 °F 35.3 °F 33.8 °F 66% 29.57 in 10.0 mi NW 26.5 mph 38.0 mph N/A   Overcast
12:56 AM 44.6 °F 34.9 °F 33.8 °F 66% 29.58 in 10.0 mi WNW 28.8 mph 38.0 mph N/A   Overcast
1:16 AM 42.8 °F 32.9 °F 33.8 °F 70% 29.58 in 10.0 mi WNW 26.5 mph 36.8 mph N/A   Overcast
1:36 AM 42.8 °F 32.5 °F 33.8 °F 70% 29.58 in 10.0 mi WNW 28.8 mph 41.4 mph N/A   Overcast
1:56 AM 42.8 °F 32.9 °F 33.8 °F 70% 29.59 in 10.0 mi WNW 26.5 mph 34.5 mph N/A   Overcast
2:16 AM 42.8 °F 33.3 °F 33.8 °F 70% 29.59 in 10.0 mi NW 24.2 mph 34.5 mph N/A   Overcast
2:36 AM 42.8 °F 32.9 °F 30.2 °F 61% 29.59 in 10.0 mi WNW 26.5 mph 33.4 mph N/A   Overcast
2:56 AM 42.8 °F 33.3 °F 30.2 °F 61% 29.60 in 10.0 mi WNW 24.2 mph 35.7 mph N/A   Overcast
3:16 AM 42.8 °F 32.7 °F 30.2 °F 61% 29.59 in 10.0 mi WNW 27.6 mph 33.4 mph N/A   Overcast
3:36 AM 42.8 °F 33.5 °F 30.2 °F 61% 29.59 in 10.0 mi WNW 23.0 mph 33.4 mph N/A   Overcast
3:56 AM 42.8 °F 33.1 °F 30.2 °F 61% 29.59 in 10.0 mi NW 25.3 mph 34.5 mph N/A   Overcast
4:16 AM 42.8 °F 32.9 °F 30.2 °F 61% 29.59 in 10.0 mi WNW 26.5 mph 33.4 mph N/A   Overcast
4:36 AM 42.8 °F 32.7 °F 30.2 °F 61% 29.59 in 10.0 mi WNW 27.6 mph 34.5 mph N/A   Overcast
4:56 AM 42.8 °F 33.5 °F 30.2 °F 61% 29.58 in 10.0 mi WNW 23.0 mph 32.2 mph N/A   Overcast
5:16 AM 42.8 °F 33.8 °F 30.2 °F 61% 29.58 in 10.0 mi WNW 21.9 mph 32.2 mph N/A   Overcast
5:36 AM 42.8 °F 33.3 °F 30.2 °F 61% 29.58 in 10.0 mi WNW 24.2 mph 32.2 mph N/A   Overcast
5:56 AM 42.8 °F 32.5 °F 30.2 °F 61% 29.58 in 10.0 mi WNW 28.8 mph 34.5 mph N/A   Overcast
6:16 AM 42.8 °F 33.5 °F 30.2 °F 61% 29.58 in 10.0 mi WNW 23.0 mph 33.4 mph N/A   Overcast
6:36 AM 42.8 °F 32.3 °F 30.2 °F 61% 29.58 in 10.0 mi NW 29.9 mph 34.5 mph N/A   Overcast
6:56 AM 42.8 °F 33.3 °F 30.2 °F 61% 29.58 in 10.0 mi WNW 24.2 mph 34.5 mph N/A   Overcast
7:16 AM 42.8 °F 32.7 °F 30.2 °F 61% 29.58 in 10.0 mi WNW 27.6 mph 35.7 mph N/A   Overcast
7:36 AM 42.8 °F 32.3 °F 30.2 °F 61% 29.60 in 10.0 mi WNW 29.9 mph 33.4 mph N/A   Overcast
7:56 AM 42.8 °F 34.3 °F 30.2 °F 61% 29.59 in 10.0 mi NW 19.6 mph 34.5 mph N/A   Overcast
8:16 AM 42.8 °F 32.9 °F 30.2 °F 61% 29.58 in 10.0 mi WNW 26.5 mph 33.4 mph N/A   Overcast
8:36 AM 42.8 °F 33.1 °F 30.2 °F 61% 29.58 in 10.0 mi NW 25.3 mph 34.5 mph N/A   Overcast
8:56 AM 42.8 °F 33.3 °F 30.2 °F 61% 29.57 in 10.0 mi NW 24.2 mph 34.5 mph N/A   Overcast
9:16 AM 42.8 °F 32.9 °F 28.4 °F 57% 29.57 in 10.0 mi NW 26.5 mph 34.5 mph N/A   Overcast
9:36 AM 42.8 °F 33.3 °F 30.2 °F 61% 29.56 in 10.0 mi NW 24.2 mph 34.5 mph N/A   Overcast
9:56 AM 42.8 °F 32.5 °F 28.4 °F 57% 29.57 in 10.0 mi NW 28.8 mph 34.5 mph N/A   Overcast
10:16 AM 42.8 °F 32.9 °F 28.4 °F 57% 29.57 in 10.0 mi NW 26.5 mph 39.1 mph N/A   Overcast
10:36 AM 42.8 °F 32.3 °F 28.4 °F 57% 29.57 in 10.0 mi NW 29.9 mph 35.7 mph N/A   Overcast
10:56 AM 42.8 °F 32.9 °F 28.4 °F 57% 29.57 in 10.0 mi NW 26.5 mph 35.7 mph N/A   Overcast
11:16 AM 42.8 °F 32.7 °F 28.4 °F 57% 29.56 in 10.0 mi NNW 27.6 mph 36.8 mph N/A   Overcast
11:36 AM 42.8 °F 32.7 °F 28.4 °F 57% 29.57 in 10.0 mi NNW 27.6 mph 39.1 mph N/A   Overcast
11:56 AM 42.8 °F 32.3 °F 26.6 °F 53% 29.56 in 10.0 mi NW 29.9 mph 39.1 mph N/A   Overcast
12:16 PM 42.8 °F 32.5 °F 26.6 °F 53% 29.56 in 10.0 mi NW 28.8 mph 40.3 mph N/A   Overcast
12:36 PM 42.8 °F 32.7 °F 28.4 °F 57% 29.56 in 10.0 mi NW 27.6 mph 39.1 mph N/A   Overcast
12:56 PM 42.8 °F 32.7 °F 28.4 °F 57% 29.56 in 10.0 mi NW 27.6 mph 38.0 mph N/A   Overcast
1:16 PM 42.8 °F 32.5 °F 28.4 °F 57% 29.55 in 10.0 mi NW 28.8 mph 36.8 mph N/A   Overcast
1:36 PM 42.8 °F 32.7 °F 28.4 °F 57% 29.56 in 10.0 mi NW 27.6 mph 36.8 mph N/A   Overcast
1:56 PM 42.8 °F 32.5 °F 28.4 °F 57% 29.56 in 10.0 mi NNW 28.8 mph 35.7 mph N/A   Overcast
2:16 PM 42.8 °F 32.1 °F 28.4 °F 57% 29.56 in 10.0 mi NNW 31.1 mph 38.0 mph N/A   Overcast
2:36 PM 42.8 °F 32.9 °F 28.4 °F 57% 29.56 in 10.0 mi NW 26.5 mph 39.1 mph N/A   Overcast
2:56 PM 44.6 °F 34.7 °F 30.2 °F 57% 29.57 in 10.0 mi NW 29.9 mph 38.0 mph N/A   Mostly Cloudy
3:16 PM 44.6 °F 35.3 °F 28.4 °F 53% 29.57 in 10.0 mi NW 26.5 mph 38.0 mph N/A   Overcast
3:36 PM 44.6 °F 34.4 °F 30.2 °F 57% 29.57 in 10.0 mi NW 32.2 mph 41.4 mph N/A   Overcast
3:56 PM 44.6 °F 34.4 °F 28.4 °F 53% 29.58 in 10.0 mi NW 32.2 mph 40.3 mph N/A   Mostly Cloudy
4:16 PM 44.6 °F 34.4 °F 28.4 °F 53% 29.59 in 10.0 mi NW 32.2 mph 38.0 mph N/A   Mostly Cloudy
4:36 PM 44.6 °F 34.7 °F 30.2 °F 57% 29.59 in 10.0 mi NW 29.9 mph 41.4 mph N/A   Overcast
4:56 PM 44.6 °F 34.6 °F 28.4 °F 53% 29.59 in 10.0 mi NNW 31.1 mph 42.6 mph N/A   Overcast
5:16 PM 44.6 °F 34.2 °F 30.2 °F 57% 29.59 in 10.0 mi NNW 33.4 mph 40.3 mph N/A   Overcast
5:36 PM 44.6 °F 33.6 °F 28.4 °F 53% 29.59 in 10.0 mi NW 38.0 mph 42.6 mph N/A   Overcast
5:56 PM 44.6 °F 34.4 °F 28.4 °F 53% 29.60 in 10.0 mi NW 32.2 mph 43.7 mph N/A   Overcast
6:16 PM 44.6 °F 33.9 °F 28.4 °F 53% 29.61 in 10.0 mi NNW 35.7 mph 43.7 mph N/A   Overcast
6:36 PM 44.6 °F 34.7 °F 28.4 °F 53% 29.61 in 10.0 mi NW 29.9 mph 44.9 mph N/A   Overcast
6:56 PM 44.6 °F 34.2 °F 28.4 °F 53% 29.62 in 10.0 mi NNW 33.4 mph 42.6 mph N/A   Overcast
7:16 PM 44.6 °F 34.4 °F 26.6 °F 49% 29.62 in 10.0 mi NNW 32.2 mph 44.9 mph N/A   Overcast
7:36 PM 42.8 °F 31.6 °F 28.4 °F 57% 29.63 in 10.0 mi NNW 34.5 mph 41.4 mph N/A   Mostly Cloudy
7:56 PM 44.6 °F 34.9 °F 28.4 °F 53% 29.63 in 10.0 mi NW 28.8 mph 44.9 mph N/A   Overcast
8:16 PM 42.8 °F 32.5 °F 28.4 °F 57% 29.64 in 10.0 mi NW 28.8 mph 42.6 mph N/A   Overcast
8:36 PM 42.8 °F 31.6 °F 26.6 °F 53% 29.64 in 10.0 mi NW 34.5 mph 43.7 mph N/A   Scattered Clouds
8:56 PM 42.8 °F 31.6 °F 26.6 °F 53% 29.65 in 10.0 mi NW 34.5 mph 42.6 mph N/A   Partly Cloudy
9:16 PM 42.8 °F 32.5 °F 26.6 °F 53% 29.66 in 10.0 mi NNW 28.8 mph 40.3 mph N/A   Mostly Cloudy
9:36 PM 42.8 °F 32.7 °F 26.6 °F 53% 29.67 in 10.0 mi NW 27.6 mph 40.3 mph N/A   Mostly Cloudy
9:56 PM 42.8 °F 32.5 °F 28.4 °F 57% 29.68 in 10.0 mi NW 28.8 mph 35.7 mph N/A   Mostly Cloudy
10:16 PM 42.8 °F 32.1 °F 26.6 °F 53% 29.68 in 10.0 mi NW 31.1 mph 35.7 mph N/A   Scattered Clouds
10:36 PM 42.8 °F 32.3 °F 26.6 °F 53% 29.69 in 10.0 mi NW 29.9 mph 36.8 mph N/A   Scattered Clouds
10:56 PM 42.8 °F 32.5 °F 26.6 °F 53% 29.69 in 10.0 mi NW 28.8 mph 33.4 mph N/A   Mostly Cloudy
11:16 PM 42.8 °F 32.7 °F 28.4 °F 57% 29.70 in 10.0 mi NNW 27.6 mph 34.5 mph N/A   Mostly Cloudy
11:36 PM 42.8 °F 32.5 °F 26.6 °F 53% 29.70 in 10.0 mi NW 28.8 mph 35.7 mph N/A   Partly Cloudy
11:56 PM 42.8 °F 32.9 °F 26.6 °F 53% 29.70 in 10.0 mi NW 26.5 mph 34.5 mph N/A   Scattered Clouds